Location: G�migny
(47.9646°N, 1.6950°E)
Time: 20:45:43
(UTC+00:00)

STARLINK-48 - Pass Details

Date: 23 October 2019
Orbit: 506 x 508 km, 53.0° (Epoch: 12 November)

Event Time Altitude Azimuth Distance (km) Brightness Sun altitude
Rises 18:49:57 0° 296° (WNW) 2,612 8.3 -20.6°
Reaches altitude 10° 18:52:09 10° 297° (WNW) 1,725 7.1 -21.0°
Maximum altitude 18:56:03 90° 228° (SW) 512 3.3 -21.6°
Enters shadow 18:56:10 85° 122° (ESE) 514 3.3 -21.6°
